Location: Carlisle
(34.5501°N, 84.5969°W)
Time: 17:15:32
(UTC+00:00)

Envisat - Visible Passes

Search period start: 27 November 2021 00:00
Search period end: 07 December 2021 00:00
Orbit: 764 x 766 km, 98.2° (Epoch: 26 November)

Date Brightness Start Highest point End Pass type
(mag) Time Alt. Az. Time Alt. Az. Time Alt. Az.
27 Nov 4.6 09:58:47 10° NNE 10:03:23 34° E 10:07:58 10° SSE visible
27 Nov 4.0 11:38:12 10° NNW 11:42:09 23° WNW 11:46:06 10° WSW visible
27 Nov 5.7 22:49:15 10° SSW 22:53:20 24° W 22:57:28 10° NW visible
28 Nov 5.9 09:23:37 10° ENE 09:26:17 14° E 09:28:56 10° SE visible
28 Nov 3.0 11:00:37 10° N 11:05:33 54° WNW 11:10:29 10° SSW visible
29 Nov 3.4 10:23:43 10° NNE 10:28:45 64° E 10:33:46 10° S visible
29 Nov 6.2 23:16:32 10° WSW 23:18:51 13° W 23:21:11 10° WNW visible
30 Nov 5.0 09:47:32 10° NE 09:51:47 26° E 09:55:59 10° SSE visible
30 Nov 3.7 11:26:21 10° N 11:30:42 30° WNW 11:35:03 10° SW visible
01 Dec 6.1 09:13:43 10° E 09:14:36 10° E 09:15:31 10° E visible
01 Dec 2.9 10:48:59 10° N 10:54:03 70° WNW 10:59:04 10° SSW visible
02 Dec 3.9 10:12:16 10° NNE 10:17:11 48° E 10:22:04 10° S visible
02 Dec 4.4 11:52:34 10° NNW 11:55:45 17° WNW 11:58:56 10° WSW visible
02 Dec 5.9 23:03:54 10° SW 23:07:12 17° W 23:10:31 10° NW visible
03 Dec 5.4 09:36:26 10° NE 09:40:09 20° E 09:43:51 10° SE visible
03 Dec 3.4 11:14:33 10° N 11:19:14 38° WNW 11:23:53 10° SW visible
04 Dec 2.9 10:37:24 10° NNE 10:42:31 89° ESE 10:47:35 10° SSW visible
05 Dec 4.4 10:00:54 10° NNE 10:05:36 37° E 10:10:16 10° SSE visible
05 Dec 4.1 11:40:31 10° NNW 11:44:20 22° WNW 11:48:07 10° WSW visible
05 Dec 5.8 22:51:37 10° SSW 22:55:33 23° W 22:59:31 10° NW visible
06 Dec 5.7 09:25:33 10° ENE 09:28:30 15° E 09:31:27 10° SE visible
06 Dec 3.1 11:02:50 10° N 11:07:44 49° WNW 11:12:36 10° SSW visible
